| time (UTC) | temp F | wind direction | speed MPH | gust MPH | rain 1hr in | rain 24hr in | rain mn in | humidity % | barometer mb |
| 20260906120002 | 73 | 198 | 2.0 | 6.0 | 0.00 | 0.01 | 0.01 | 96 | 1011.9 |
| 20260906114531 | 73 | 64 | 4.0 | 6.0 | 0.01 | 0.01 | 0.01 | 95 | 1012.4 |
| 20260906113050 | 73 | 122 | 1.0 | 6.0 | 0.01 | 0.01 | 0.01 | 95 | 1012.3 |
| 20260906111511 | 73 | 53 | 0.0 | 2.0 | 0.01 | 0.01 | 0.01 | 94 | 1012.1 |
| 20260906110025 | 74 | 229 | 2.0 | 4.0 | 0.01 | 0.01 | 0.01 | 93 | 1012.2 |
| 20260906104547 | 74 | 311 | 5.0 | 9.0 | 0.00 | 0.00 | 0.00 | 91 | 1013.0 |
| 20260906103013 | 74 | 39 | 0.0 | 0.0 | 0.00 | 0.00 | 0.00 | 89 | 1012.3 |
| 20260906101535 | 74 | 38 | 1.0 | 4.0 | 0.00 | 0.00 | 0.00 | 89 | 1012.8 |
| 20260906100034 | 75 | 61 | 0.0 | 6.0 | 0.00 | 0.00 | 0.00 | 89 | 1012.6 |
| 20260906094553 | 75 | 22 | 3.0 | 6.0 | 0.00 | 0.00 | 0.00 | 88 | 1012.8 |
| 20260906093016 | 75 | 45 | 3.0 | 8.0 | 0.00 | 0.00 | 0.00 | 88 | 1012.5 |
| 20260906091540 | 75 | 38 | 4.0 | 6.0 | 0.00 | 0.00 | 0.00 | 87 | 1012.5 |
| 20260906090044 | 76 | 81 | 0.0 | 5.0 | 0.00 | 0.00 | 0.00 | 87 | 1012.0 |
| 20260906084506 | 76 | 79 | 2.0 | 7.0 | 0.00 | 0.00 | 0.00 | 86 | 1012.2 |
| 20260906083032 | 76 | 125 | 7.0 | 13.0 | 0.00 | 0.00 | 0.00 | 86 | 1011.9 |
| 20260906081557 | 77 | 128 | 4.0 | 13.0 | 0.00 | 0.00 | 0.00 | 87 | 1011.9 |
| 20260906080057 | 77 | 68 | 3.0 | 10.0 | 0.00 | 0.00 | 0.00 | 88 | 1012.0 |
| 20260906074524 | 77 | 93 | 4.0 | 10.0 | 0.00 | 0.00 | 0.00 | 89 | 1012.0 |
| 20260906073042 | 76 | 103 | 5.0 | 12.0 | 0.00 | 0.00 | 0.00 | 92 | 1011.8 |
| 20260906071502 | 75 | 57 | 2.0 | 5.0 | 0.00 | 0.00 | 0.00 | 93 | 1011.7 |
| 20260906070018 | 75 | 98 | 0.0 | 2.0 | 0.00 | 0.00 | 0.00 | 94 | 1011.6 |
| 20260906064532 | 75 | 92 | 0.0 | 2.0 | 0.00 | 0.00 | 0.00 | 94 | 1011.4 |
| 20260906063050 | 76 | 78 | 0.0 | 0.0 | 0.00 | 0.00 | 0.00 | 93 | 1011.4 |
| 20260906061510 | 76 | 74 | 0.0 | 0.0 | 0.00 | 0.00 | 0.00 | 93 | 1011.2 |
| 20260906060022 | 76 | 74 | 0.0 | 0.0 | 0.00 | 0.00 | 0.00 | 93 | 1011.0 |
| 20260906054558 | 77 | 74 | 0.0 | 0.0 | 0.00 | 0.00 | 0.00 | 92 | 1011.0 |
| 20260906053056 | 77 | 74 | 0.0 | 0.0 | 0.00 | 0.00 | 0.00 | 91 | 1011.0 |
| 20260906051531 | 77 | 74 | 0.0 | 2.0 | 0.00 | 0.00 | 0.00 | 91 | 1011.3 |
| 20260906050028 | 78 | 74 | 0.0 | 0.0 | 0.00 | 0.00 | 0.00 | 91 | 1011.6 |
| 20260906044541 | 78 | 74 | 0.0 | 3.0 | 0.00 | 0.00 | 0.00 | 90 | 1011.6 |
| 20260906043102 | 79 | 74 | 0.0 | 2.0 | 0.00 | 0.00 | 0.00 | 90 | 1011.6 |
| 20260906041525 | 79 | 74 | 0.0 | 2.0 | 0.00 | 0.00 | 0.00 | 90 | 1011.8 |
| 20260906040044 | 79 | 75 | 0.0 | 2.0 | 0.00 | 0.00 | 0.00 | 90 | 1011.6 |
| 20260906034600 | 79 | 75 | 0.0 | 5.0 | 0.00 | 0.00 | 0.00 | 90 | 1011.5 |
| 20260906033031 | 79 | 61 | 2.0 | 4.0 | 0.00 | 0.00 | 0.00 | 90 | 1011.7 |
| 20260906031606 | 79 | 5 | 0.0 | 0.0 | 0.00 | 0.00 | 0.00 | 90 | 1011.6 |
| 20260906030056 | 79 | 5 | 0.0 | 0.0 | 0.00 | 0.00 | 0.00 | 89 | 1011.4 |
| 20260906024533 | 80 | 5 | 0.0 | 0.0 | 0.00 | 0.00 | 0.00 | 89 | 1011.1 |
| 20260906023045 | 80 | 5 | 0.0 | 0.0 | 0.00 | 0.00 | 0.00 | 88 | 1010.8 |
| 20260906021501 | 81 | 5 | 0.0 | 0.0 | 0.00 | 0.00 | 0.00 | 86 | 1010.8 |
| 20260906020014 | 82 | 5 | 0.0 | 0.0 | 0.00 | 0.00 | 0.00 | 86 | 1010.5 |
| 20260906014537 | 82 | 5 | 0.0 | 0.0 | 0.00 | 0.00 | 0.00 | 85 | 1010.4 |
| 20260906013104 | 83 | 5 | 0.0 | 0.0 | 0.00 | 0.00 | 0.00 | 83 | 1010.5 |
| 20260906011525 | 85 | 5 | 0.0 | 0.0 | 0.00 | 0.00 | 0.00 | 79 | 1010.5 |
| 20260906010046 | 86 | 5 | 0.0 | 0.0 | 0.00 | 0.00 | 0.00 | 78 | 1010.3 |
| 20260906004513 | 87 | 5 | 0.0 | 0.0 | 0.00 | 0.00 | 0.00 | 76 | 1010.1 |
| 20260906003041 | 88 | 5 | 0.0 | 0.0 | 0.00 | 0.00 | 0.00 | 74 | 1010.0 |
| 20260906001505 | 91 | 5 | 0.0 | 0.0 | 0.00 | 0.00 | 0.00 | 70 | 1010.0 |
| 20260906000019 | 92 | 5 | 0.0 | 0.0 | 0.00 | 0.00 | 0.00 | 67 | 1010.1 |
| 20260905234551 | 93 | 5 | 0.0 | 0.0 | 0.00 | 0.00 | 0.00 | 63 | 1010.4 |
| 20260905233022 | 94 | 5 | 0.0 | 2.0 | 0.00 | 0.00 | 0.00 | 60 | 1010.3 |
| 20260905231549 | 95 | 5 | 1.0 | 3.0 | 0.00 | 0.00 | 0.00 | 57 | 1010.2 |
| 20260905230057 | 95 | 36 | 2.0 | 4.0 | 0.00 | 0.00 | 0.00 | 55 | 1010.2 |
| 20260905224525 | 96 | 48 | 3.0 | 5.0 | 0.00 | 0.00 | 0.00 | 54 | 1010.0 |
| 20260905223047 | 97 | 74 | 1.0 | 6.0 | 0.00 | 0.00 | 0.00 | 53 | 1010.2 |
| 20260905221527 | 97 | 58 | 0.0 | 3.0 | 0.00 | 0.00 | 0.00 | 53 | 1010.2 |
| 20260905220038 | 97 | 71 | 1.0 | 4.0 | 0.00 | 0.00 | 0.00 | 53 | 1010.3 |
| 20260905214558 | 97 | 85 | 1.0 | 5.0 | 0.00 | 0.00 | 0.00 | 53 | 1010.4 |
| 20260905213027 | 97 | 60 | 2.0 | 6.0 | 0.00 | 0.00 | 0.00 | 52 | 1010.6 |
| 20260905211604 | 97 | 84 | 3.0 | 8.0 | 0.00 | 0.00 | 0.00 | 54 | 1010.6 |
| 20260905210106 | 96 | 96 | 1.0 | 4.0 | 0.00 | 0.00 | 0.00 | 55 | 1010.6 |
| 20260905204531 | 98 | 65 | 4.0 | 9.0 | 0.00 | 0.00 | 0.00 | 54 | 1010.7 |
| 20260905203108 | 97 | 264 | 1.0 | 6.0 | 0.00 | 0.00 | 0.00 | 54 | 1010.8 |
| 20260905201533 | 96 | 325 | 2.0 | 8.0 | 0.00 | 0.00 | 0.00 | 58 | 1011.3 |
| 20260905200039 | 97 | 38 | 2.0 | 8.0 | 0.00 | 0.00 | 0.00 | 57 | 1011.4 |
| 20260905194503 | 97 | 333 | 2.0 | 5.0 | 0.00 | 0.00 | 0.00 | 56 | 1011.5 |
| 20260905193028 | 97 | 343 | 2.0 | 6.0 | 0.00 | 0.00 | 0.00 | 57 | 1012.0 |
| 20260905191550 | 96 | 5 | 2.0 | 6.0 | 0.00 | 0.00 | 0.00 | 59 | 1012.0 |
| 20260905190101 | 97 | 334 | 2.0 | 5.0 | 0.00 | 0.00 | 0.00 | 57 | 1012.2 |
| 20260905184530 | 96 | 65 | 5.0 | 11.0 | 0.00 | 0.00 | 0.00 | 58 | 1012.3 |
| 20260905183057 | 95 | 133 | 3.0 | 9.0 | 0.00 | 0.00 | 0.00 | 59 | 1012.6 |
| 20260905181526 | 95 | 130 | 2.0 | 8.0 | 0.00 | 0.00 | 0.00 | 59 | 1012.8 |
| 20260905180034 | 95 | 54 | 3.0 | 8.0 | 0.00 | 0.00 | 0.00 | 59 | 1012.8 |
| 20260905174603 | 95 | 346 | 2.0 | 12.0 | 0.00 | 0.00 | 0.00 | 58 | 1013.1 |
| 20260905173051 | 95 | 101 | 4.0 | 9.0 | 0.00 | 0.00 | 0.00 | 58 | 1013.0 |
| 20260905171559 | 94 | 40 | 3.0 | 8.0 | 0.00 | 0.00 | 0.00 | 61 | 1013.3 |
| 20260905170007 | 94 | 16 | 3.0 | 9.0 | 0.00 | 0.00 | 0.00 | 61 | 1013.3 |
| 20260905164539 | 93 | 314 | 2.0 | 9.0 | 0.00 | 0.00 | 0.00 | 63 | 1013.5 |
| 20260905163101 | 92 | 26 | 2.0 | 6.0 | 0.00 | 0.00 | 0.00 | 65 | 1013.6 |
| 20260905161528 | 92 | 311 | 1.0 | 6.0 | 0.00 | 0.00 | 0.00 | 65 | 1014.0 |
| 20260905160035 | 91 | 299 | 1.0 | 8.0 | 0.00 | 0.00 | 0.00 | 65 | 1014.1 |
| 20260905154558 | 91 | 44 | 1.0 | 6.0 | 0.00 | 0.00 | 0.00 | 65 | 1014.1 |
| 20260905153018 | 90 | 323 | 2.0 | 8.0 | 0.00 | 0.00 | 0.00 | 68 | 1014.4 |
| 20260905151548 | 89 | 331 | 3.0 | 6.0 | 0.00 | 0.00 | 0.00 | 69 | 1014.1 |
| 20260905150047 | 89 | 348 | 3.0 | 8.0 | 0.00 | 0.00 | 0.00 | 71 | 1014.3 |
| 20260905144503 | 88 | 355 | 0.0 | 0.0 | 0.00 | 0.00 | 0.00 | 71 | 1014.4 |